Location: Maccacari
(45.1333°N, 11.1333°E)
Time: 02:29:21
(UTC+00:00)

Altair - Pass Details

Date: 25 January 2021
Orbit: 1501 x 1682 km, 47.2° (Epoch: 01 March)

Event Time Altitude Azimuth Distance (km) Brightness Sun altitude
Rises 10:49:50 0° 294° (WNW) 4,940 9.9 25.4°
Reaches altitude 10° 10:53:16 10° 287° (WNW) 3,945 9.5 25.5°
Maximum altitude 11:02:23 40° 223° (SW) 2,278 9.3 25.8°
Drops below altitude 10° 11:11:18 10° 158° (SSE) 3,844 11.1 25.9°
Sets 11:14:36 0° 151° (SSE) 4,803 11.1 26.0°
